User: anonymous   Login
Location: Bergen
(60.3910°N, 5.3250°E)
Time: 06:51:34
(UTC+02:00)
Language:

Cosmos 1943 - Orbit

View from above orbital plane
View from above orbital plane
View from above satellite
View from above satellite

Ground track
Ground track

The orbit data is extracted from the following two-line orbital elements,

1 19119U 88039A   16209.55814448  .00000208  00000-0  13175-3 0  9996
2 19119  71.0034  63.4936 0012075 200.9590 180.8098 14.15070888456178
Epoch (UTC): 27 July 2016 13:23:43
Eccentricity: 0.0012075
inclination: 71.0034°
perigee height: 833 km
apogee height: 851 km
right ascension of ascending node: 63.4936°
argument of perigee: 200.9590°
revolutions per day: 14.15070888
mean anomaly at epoch: 180.8098°
orbit number at epoch: 45617

The dashed part of the orbit path shows where the satellite is in the earth's shadow,  

DLR